When you browse on this site, cookies collect data to enhance your experience and personalize the content and advertising you see.
Visit our Privacy Policy to learn more. By continuing to use the site, you agree to this use of cookies and data.
  • In Lithuania
  • List of Countries
  • For 7 days
  • Water Temperature
  • Satellite Maps
  • Weather Map
  • Weather Widgets
  • user-avatar
    Login

    Hourly Weather Novoragulinskiy

    Today, 23 July, Tuesday

    Time Temperature Precipitation Wind Pressure Humidity
    00:00 +26°C° 0 mm 1 mps 755 mmHg 48%
    01:00 +26°C° 0 mm 1 mps 755 mmHg 48%
    02:00 +26°C° 0 mm 2 mps 755 mmHg 48%
    03:00 +25°C° 0 mm 1 mps 756 mmHg 55%
    04:00 +25°C° 0 mm 1 mps 755 mmHg 55%
    05:00 +25°C° 0 mm 2 mps 755 mmHg 56%
    06:00 +25°C° 0 mm 2 mps 755 mmHg 56%
    07:00 +26°C° 0 mm 2 mps 755 mmHg 54%
    08:00 +27°C° 0 mm 2 mps 755 mmHg 51%
    09:00 +27°C° 0 mm 3 mps 754 mmHg 49%
    10:00 +28°C° 0.1 mm 3 mps 754 mmHg 47%
    11:00 +28°C° 0.1 mm 4 mps 754 mmHg 46%
    12:00 +28°C° 0.1 mm 4 mps 754 mmHg 44%
    13:00 +29°C° 0 mm 4 mps 754 mmHg 43%
    14:00 +29°C° 0 mm 4 mps 753 mmHg 43%
    15:00 +29°C° 0 mm 4 mps 753 mmHg 42%
    16:00 +29°C° 0 mm 4 mps 753 mmHg 44%
    17:00 +29°C° 0 mm 4 mps 753 mmHg 45%
    18:00 +28°C° 0 mm 4 mps 753 mmHg 47%
    19:00 +27°C° 0 mm 3 mps 753 mmHg 51%
    20:00 +26°C° 0 mm 3 mps 753 mmHg 55%
    21:00 +25°C° 0 mm 2 mps 753 mmHg 60%
    22:00 +25°C° 0 mm 2 mps 752 mmHg 59%
    23:00 +25°C° 0 mm 2 mps 752 mmHg 59%

    Tomorrow, 24 July, Wednesday

    Time Temperature Precipitation Wind Pressure Humidity
    00:00 +25°C° 0 mm 2 mps 752 mmHg 59%
    01:00 +25°C° 0 mm 2 mps 752 mmHg 59%
    02:00 +25°C° 0 mm 2 mps 752 mmHg 59%
    03:00 +24°C° 0 mm 2 mps 752 mmHg 59%
    04:00 +25°C° 0 mm 2 mps 752 mmHg 59%
    05:00 +25°C° 0 mm 3 mps 752 mmHg 59%
    06:00 +25°C° 0 mm 3 mps 752 mmHg 58%
    07:00 +26°C° 0 mm 3 mps 752 mmHg 55%
    08:00 +27°C° 0 mm 3 mps 752 mmHg 51%
    09:00 +28°C° 0 mm 4 mps 752 mmHg 47%
    10:00 +30°C° 0 mm 4 mps 751 mmHg 43%
    11:00 +32°C° 0 mm 4 mps 751 mmHg 40%
    12:00 +33°C° 0 mm 5 mps 751 mmHg 36%
    13:00 +33°C° 0.1 mm 5 mps 751 mmHg 37%
    14:00 +33°C° 0.1 mm 5 mps 751 mmHg 39%
    15:00 +33°C° 0.1 mm 6 mps 751 mmHg 41%
    16:00 +32°C° 0.1 mm 5 mps 751 mmHg 45%
    17:00 +30°C° 0.1 mm 4 mps 751 mmHg 48%
    18:00 +29°C° 0.1 mm 4 mps 751 mmHg 52%
    19:00 +28°C° 0 mm 3 mps 751 mmHg 54%
    20:00 +27°C° 0 mm 3 mps 751 mmHg 57%
    21:00 +27°C° 0 mm 3 mps 751 mmHg 59%
    22:00 +26°C° 0 mm 3 mps 751 mmHg 60%
    23:00 +26°C° 0 mm 2 mps 751 mmHg 61%

    Day after tomorrow, 25 July, Thursday

    Time Temperature Precipitation Wind Pressure Humidity
    00:00 +26°C° 0 mm 2 mps 751 mmHg 61%
    01:00 +26°C° 0 mm 2 mps 751 mmHg 61%
    02:00 +26°C° 0 mm 2 mps 751 mmHg 61%
    03:00 +26°C° 0 mm 2 mps 751 mmHg 61%
    04:00 +26°C° 0 mm 2 mps 751 mmHg 60%
    05:00 +26°C° 0 mm 2 mps 751 mmHg 59%
    06:00 +26°C° 0 mm 2 mps 751 mmHg 59%
    07:00 +27°C° 0.3 mm 2 mps 751 mmHg 56%
    08:00 +28°C° 0.3 mm 2 mps 751 mmHg 54%
    09:00 +29°C° 0.3 mm 2 mps 751 mmHg 52%
    10:00 +29°C° 0.1 mm 2 mps 751 mmHg 51%
    11:00 +30°C° 0.1 mm 2 mps 751 mmHg 49%
    12:00 +30°C° 0.1 mm 2 mps 751 mmHg 48%
    13:00 +28°C° 1.1 mm 3 mps 751 mmHg 59%
    14:00 +27°C° 1.1 mm 3 mps 751 mmHg 70%
    15:00 +25°C° 1.1 mm 4 mps 751 mmHg 80%
    16:00 +26°C° 1 mm 4 mps 751 mmHg 75%
    17:00 +27°C° 1 mm 3 mps 751 mmHg 70%
    18:00 +27°C° 1 mm 2 mps 751 mmHg 64%
    19:00 +27°C° 0.1 mm 2 mps 752 mmHg 69%
    20:00 +26°C° 0.1 mm 2 mps 752 mmHg 73%
    21:00 +25°C° 0.1 mm 2 mps 752 mmHg 77%
    22:00 +25°C° 0.2 mm 3 mps 752 mmHg 78%
    23:00 +24°C° 0.2 mm 3 mps 752 mmHg 78%

    26 July, Friday

    Time Temperature Precipitation Wind Pressure Humidity
    00:00 +23°C° 0.2 mm 4 mps 752 mmHg 79%
    01:00 +23°C° 0 mm 4 mps 752 mmHg 78%
    02:00 +23°C° 0 mm 4 mps 752 mmHg 77%
    03:00 +23°C° 0 mm 5 mps 752 mmHg 76%
    04:00 +22°C° 0 mm 5 mps 752 mmHg 74%
    05:00 +22°C° 0 mm 5 mps 752 mmHg 72%
    06:00 +22°C° 0 mm 5 mps 753 mmHg 70%
    07:00 +23°C° 0 mm 6 mps 753 mmHg 65%
    08:00 +26°C° 0 mm 6 mps 753 mmHg 60%
    09:00 +27°C° 0 mm 6 mps 753 mmHg 55%
    10:00 +28°C° 0 mm 6 mps 753 mmHg 49%
    11:00 +29°C° 0 mm 6 mps 752 mmHg 44%
    12:00 +32°C° 0 mm 7 mps 752 mmHg 39%
    13:00 +32°C° 0 mm 6 mps 752 mmHg 38%
    14:00 +32°C° 0 mm 6 mps 752 mmHg 36%
    15:00 +33°C° 0 mm 6 mps 752 mmHg 34%
    16:00 +32°C° 0 mm 6 mps 752 mmHg 35%
    17:00 +32°C° 0 mm 6 mps 752 mmHg 36%
    18:00 +30°C° 0 mm 5 mps 752 mmHg 37%
    19:00 +29°C° 0 mm 4 mps 752 mmHg 42%
    20:00 +28°C° 0 mm 3 mps 752 mmHg 47%
    21:00 +26°C° 0 mm 2 mps 752 mmHg 51%
    22:00 +26°C° 0 mm 2 mps 752 mmHg 53%
    23:00 +25°C° 0 mm 2 mps 752 mmHg 55%

    27 July, Saturday

    Time Temperature Precipitation Wind Pressure Humidity
    00:00 +25°C° 0 mm 3 mps 752 mmHg 56%
    01:00 +24°C° 0 mm 3 mps 752 mmHg 58%
    02:00 +24°C° 0 mm 3 mps 752 mmHg 59%
    03:00 +22°C° 0 mm 3 mps 752 mmHg 60%
    04:00 +22°C° 0 mm 3 mps 752 mmHg 61%
    05:00 +22°C° 0 mm 4 mps 752 mmHg 62%
    06:00 +22°C° 0 mm 4 mps 752 mmHg 63%
    07:00 +23°C° 0 mm 4 mps 752 mmHg 58%
    08:00 +26°C° 0 mm 4 mps 752 mmHg 54%
    09:00 +28°C° 0 mm 4 mps 752 mmHg 49%
    10:00 +29°C° 0 mm 4 mps 751 mmHg 44%
    11:00 +30°C° 0 mm 4 mps 751 mmHg 39%
    12:00 +32°C° 0 mm 4 mps 751 mmHg 35%
    13:00 +33°C° 0 mm 3 mps 751 mmHg 33%
    14:00 +33°C° 0 mm 3 mps 750 mmHg 32%
    15:00 +34°C° 0 mm 3 mps 750 mmHg 30%
    16:00 +33°C° 0 mm 3 mps 750 mmHg 31%
    17:00 +33°C° 0 mm 3 mps 750 mmHg 32%
    18:00 +33°C° 0 mm 3 mps 750 mmHg 32%
    19:00 +30°C° 0 mm 3 mps 750 mmHg 36%
    20:00 +29°C° 0 mm 2 mps 750 mmHg 39%
    21:00 +27°C° 0 mm 2 mps 750 mmHg 42%
    22:00 +27°C° 0 mm 2 mps 750 mmHg 45%
    23:00 +26°C° 0 mm 1 mps 749 mmHg 48%

    28 July, Sunday

    Time Temperature Precipitation Wind Pressure Humidity
    00:00 +25°C° 0 mm 1 mps 749 mmHg 51%
    01:00 +25°C° 0 mm 1 mps 749 mmHg 53%
    02:00 +24°C° 0 mm 1 mps 749 mmHg 56%
    03:00 +22°C° 0 mm 0 mps 749 mmHg 58%
    04:00 +23°C° 0 mm 0 mps 748 mmHg 57%
    05:00 +23°C° 0 mm 0 mps 748 mmHg 56%
    06:00 +24°C° 0 mm 0 mps 748 mmHg 54%
    07:00 +27°C° 0 mm 1 mps 748 mmHg 49%
    08:00 +29°C° 0 mm 1 mps 748 mmHg 43%
    09:00 +30°C° 0 mm 1 mps 748 mmHg 38%
    10:00 +31°C° 0 mm 1 mps 748 mmHg 35%
    11:00 +32°C° 0 mm 1 mps 748 mmHg 33%
    12:00 +33°C° 0 mm 1 mps 747 mmHg 31%
    13:00 +34°C° 0 mm 1 mps 747 mmHg 29%
    14:00 +35°C° 0 mm 2 mps 746 mmHg 28%
    15:00 +36°C° 0 mm 2 mps 746 mmHg 26%
    16:00 +36°C° 0 mm 2 mps 746 mmHg 27%
    17:00 +36°C° 0 mm 2 mps 745 mmHg 28%
    18:00 +35°C° 0 mm 2 mps 745 mmHg 28%
    19:00 +34°C° 0 mm 2 mps 745 mmHg 31%
    20:00 +31°C° 0 mm 2 mps 745 mmHg 35%
    21:00 +30°C° 0 mm 2 mps 745 mmHg 38%
    22:00 +29°C° 0 mm 2 mps 745 mmHg 40%
    23:00 +28°C° 0 mm 2 mps 745 mmHg 43%
    Show more